Weather History for Provo, UT

Change the Weather History Date:

Wednesday, September 26, 2012

  Actual Average Record
Temperature  
Mean Temperature 60 °F -  
Max Temperature 69 °F 71 °F 87 °F (2001)
Min Temperature 50 °F 43 °F 35 °F (2007)
Degree Days  
Heating Degree Days 6    
Growing Degree Days 10 (Base 50)    
Moisture  
Dew Point 49 °F    
Average Humidity 76    
Maximum Humidity 94    
Minimum Humidity 43    
Precipitation  
Precipitation 0.06 in - - ()
Sea Level Pressure  
Sea Level Pressure 30.11 in    
Wind  
Wind Speed 3 mph (SSE)    
Max Wind Speed 8 mph    
Max Gust Speed -    
Visibility 12 miles    
Events      
Averages and records for this station are not official NWS values.
T = Trace of Precipitation, MM = Missing Value Source: NWS Daily Summary

Daily Weather History Graph

Daily Weather History Graph

Search for Another Location

Airport:

Trip Planner

Search our weather history database for the weather conditions in past years. The results will help you decide how hot, cold, wet, or windy it might be!

Date:

Astronomy

Sep. 26, 2012 Rise Set
Actual Time 7:18 AM MDT 7:16 PM MDT
Civil Twilight 6:51 AM MDT 7:43 PM MDT
Nautical Twilight 6:20 AM MDT 8:15 PM MDT
Astronomical Twilight 5:48 AM MDT 8:46 PM MDT
Moon 5:18 PM MDT 3:48 AM MDT
Length of Visible Light 12h 51m
Length of Day
11h 57m
Waxing Gibbous, 88% of the Moon is Illuminated
Sep 26
Waxing Gibbous
Sep 29
Full
Oct 8
Last Quarter
Oct 15
New
Oct 21
First Quarter

Hourly Weather History & Observations

Time (MDT) Temp. Dew Point Humidity Pressure Visibility Wind Dir Wind Speed Gust Speed Precip Events Conditions
12:15 AM 55.4 °F 51.8 °F 88% 30.11 in 10.0 mi Calm Calm - 0.01 in   Mostly Cloudy
12:35 AM 55.4 °F 51.8 °F 88% 30.11 in 10.0 mi North 5.8 mph - 0.03 in   Mostly Cloudy
12:55 AM 55.4 °F 51.8 °F 88% 30.10 in 10.0 mi North 3.5 mph - 0.05 in   Partly Cloudy
1:15 AM 55.4 °F 51.8 °F 88% 30.10 in 10.0 mi Calm Calm - 0.01 in   Clear
1:35 AM 55.4 °F 50.0 °F 82% 30.10 in 10.0 mi Calm Calm - 0.01 in   Partly Cloudy
1:55 AM 55.4 °F 51.8 °F 88% 30.10 in 10.0 mi Calm Calm - 0.01 in   Mostly Cloudy
2:15 AM 55.4 °F 51.8 °F 88% 30.10 in 10.0 mi SE 4.6 mph - N/A   Mostly Cloudy
2:35 AM 55.4 °F 51.8 °F 88% 30.10 in 10.0 mi Calm Calm - N/A   Mostly Cloudy
2:55 AM 53.6 °F 51.8 °F 94% 30.09 in 10.0 mi Calm Calm - N/A   Partly Cloudy
3:15 AM 53.6 °F 48.2 °F 82% 30.09 in 10.0 mi SE 4.6 mph - N/A   Clear
3:35 AM 51.8 °F 48.2 °F 88% 30.09 in 10.0 mi ESE 3.5 mph - N/A   Clear
3:55 AM 51.8 °F 48.2 °F 88% 30.08 in 10.0 mi SSE 4.6 mph - N/A   Clear
3:56 AM 51.8 °F 48.2 °F 88% 30.08 in 10.0 mi SSE 4.6 mph - N/A   Clear
4:15 AM 51.8 °F 48.2 °F 88% 30.08 in 10.0 mi SE 5.8 mph - N/A   Clear
4:35 AM 51.8 °F 48.2 °F 88% 30.08 in 10.0 mi SE 4.6 mph - N/A   Clear
4:55 AM 51.8 °F 48.2 °F 88% 30.09 in 10.0 mi Calm Calm - N/A   Clear
5:15 AM 51.8 °F 46.4 °F 82% 30.08 in 10.0 mi ESE 5.8 mph - N/A   Clear
6:35 AM 50.0 °F 46.4 °F 87% 30.10 in 10.0 mi ESE 4.6 mph - N/A   Clear
6:51 AM 50.0 °F 46.4 °F 87% 30.10 in 15.0 mi Calm Calm - N/A   Mostly Cloudy
7:57 AM 51.8 °F 48.2 °F 88% 30.12 in 15.0 mi Calm Calm - N/A   Mostly Cloudy
8:54 AM 53.6 °F 51.8 °F 94% 30.12 in 15.0 mi Calm Calm - N/A   Mostly Cloudy
9:47 AM 57.2 °F 50.0 °F 77% 30.13 in 15.0 mi Calm Calm - N/A   Mostly Cloudy
10:47 AM 60.8 °F 48.2 °F 63% 30.14 in 15.0 mi SW 4.6 mph - N/A   Mostly Cloudy
11:50 AM 62.6 °F 48.2 °F 59% 30.13 in 15.0 mi Variable 4.6 mph - N/A   Mostly Cloudy
12:50 PM 62.6 °F 46.4 °F 55% 30.12 in 15.0 mi Variable 5.8 mph - N/A   Mostly Cloudy
1:50 PM 64.4 °F 48.2 °F 56% 30.10 in 15.0 mi West 4.6 mph - N/A   Scattered Clouds
2:50 PM 64.4 °F 48.2 °F 56% 30.10 in 15.0 mi Variable 5.8 mph - N/A   Mostly Cloudy
3:50 PM 66.2 °F 46.4 °F 49% 30.08 in 15.0 mi Variable 5.8 mph - N/A   Mostly Cloudy
4:56 PM 69.8 °F 46.4 °F 43% 30.08 in 15.0 mi Calm Calm - N/A   Mostly Cloudy
5:47 PM 68.0 °F 48.2 °F 49% 30.09 in 15.0 mi WNW 8.1 mph - N/A   Mostly Cloudy
6:47 PM 66.2 °F 50.0 °F 56% 30.09 in 15.0 mi WNW 4.6 mph - N/A   Mostly Cloudy
7:47 PM 64.4 °F 53.6 °F 68% 30.10 in 15.0 mi Calm Calm - N/A   Mostly Cloudy
8:47 PM 62.6 °F 48.2 °F 59% 30.12 in 15.0 mi Calm Calm - N/A   Partly Cloudy
8:55 PM 62.6 °F 50.0 °F 63% 30.12 in 10.0 mi South 5.8 mph - N/A   Clear
9:35 PM 60.8 °F 50.0 °F 68% 30.13 in 10.0 mi South 3.5 mph - N/A   Clear
9:55 PM 59.0 °F 50.0 °F 72% 30.12 in 10.0 mi SE 6.9 mph - N/A   Clear
10:15 PM 59.0 °F 50.0 °F 72% 30.13 in 10.0 mi SE 5.8 mph - N/A   Clear
10:35 PM 59.0 °F 48.2 °F 67% 30.13 in 10.0 mi South 4.6 mph - N/A   Clear
10:55 PM 57.2 °F 50.0 °F 77% 30.14 in 10.0 mi Calm Calm - N/A   Clear
11:15 PM 55.4 °F 50.0 °F 82% 30.14 in 10.0 mi Calm Calm - N/A   Clear
11:35 PM 57.2 °F 48.2 °F 72% 30.15 in 10.0 mi Calm Calm - N/A   Partly Cloudy
11:55 PM 57.2 °F 48.2 °F 72% 30.15 in 10.0 mi Calm Calm - N/A   Clear